Weather History for Hayward, WI

Change the Weather History Date:

Saturday, March 30, 2013

  Actual Average Record
Temperature  
Mean Temperature 39 °F -  
Max Temperature 48 °F 42 °F 66 °F (1999)
Min Temperature 30 °F 23 °F 8 °F (2011)
Degree Days  
Heating Degree Days 26    
Moisture  
Dew Point 34 °F    
Average Humidity 90    
Maximum Humidity 100    
Minimum Humidity 57    
Precipitation  
Precipitation 0.34 in - - ()
Sea Level Pressure  
Sea Level Pressure 29.85 in    
Wind  
Wind Speed 3 mph (SSW)    
Max Wind Speed 7 mph    
Max Gust Speed -    
Visibility 3 miles    
Events Fog , Rain    
Averages and records for this station are not official NWS values.
T = Trace of Precipitation, MM = Missing Value Source: NWS Daily Summary

Daily Weather History Graph

Daily Weather History Graph

Search for Another Location

Airport:

Trip Planner

Search our weather history database for the weather conditions in past years. The results will help you decide how hot, cold, wet, or windy it might be!

Date:

Astronomy

Mar. 30, 2013 Rise Set
Actual Time 6:49 AM CDT 7:32 PM CDT
Civil Twilight 6:18 AM CDT 8:02 PM CDT
Nautical Twilight 5:43 AM CDT 8:38 PM CDT
Astronomical Twilight 5:05 AM CDT 9:15 PM CDT
Moon 11:52 PM CDT 8:32 AM CDT
Length of Visible Light 13h 43m
Length of Day
12h 43m
Waning Gibbous, 86% of the Moon is Illuminated
Mar 30
Waning Gibbous
Apr 2
Last Quarter
Apr 10
New
Apr 18
First Quarter
Apr 25
Full

Hourly Weather History & Observations

Time (CDT) Temp. Windchill Dew Point Humidity Pressure Visibility Wind Dir Wind Speed Gust Speed Precip Events Conditions
12:53 AM 39.0 °F 36.8 °F 25.0 °F 57% 30.11 in 10.0 mi South 3.5 mph - N/A   Mostly Cloudy
1:53 AM 39.0 °F 36.8 °F 28.0 °F 65% 30.09 in 9.0 mi South 3.5 mph - 0.00 in Rain Light Rain
2:53 AM 37.9 °F 33.5 °F 34.0 °F 86% 30.06 in 7.0 mi South 5.8 mph - 0.05 in Rain Light Rain
3:53 AM 39.0 °F 34.0 °F 35.1 °F 86% 30.02 in 7.0 mi South 6.9 mph - 0.01 in Rain Light Rain
4:53 AM 37.9 °F 34.4 °F 35.1 °F 89% 29.99 in 5.0 mi Variable 4.6 mph - 0.06 in Rain Light Rain
5:53 AM 37.0 °F 32.4 °F 33.1 °F 86% 29.95 in 8.0 mi SSE 5.8 mph - 0.00 in Rain Light Rain
6:53 AM 36.0 °F 31.1 °F 33.1 °F 89% 29.92 in 5.0 mi SSE 5.8 mph - 0.03 in Rain Light Rain
7:41 AM 39.2 °F 34.2 °F 33.8 °F 81% 29.87 in 8.0 mi SSW 6.9 mph - 0.01 in   Overcast
7:53 AM 37.9 °F 35.5 °F 35.1 °F 89% 29.91 in 4.0 mi Variable 3.5 mph - 0.01 in Rain Light Rain
8:08 AM 37.4 °F 33.8 °F 35.6 °F 93% 29.87 in 2.5 mi SSW 4.6 mph - 0.03 in Rain Rain
8:40 AM 37.4 °F 33.8 °F 35.6 °F 93% 29.87 in 1.5 mi SSW 4.6 mph - 0.09 in Rain Rain
8:53 AM 37.0 °F 34.5 °F 35.1 °F 93% 29.91 in 1.8 mi SSW 3.5 mph - 0.12 in Rain Rain
9:06 AM 37.4 °F 34.9 °F 35.6 °F 93% 29.85 in 2.0 mi Variable 3.5 mph - 0.03 in Rain Rain
9:42 AM 37.4 °F 34.9 °F 35.6 °F 93% 29.85 in 3.0 mi Variable 3.5 mph - 0.05 in Rain Light Rain
9:53 AM 37.9 °F - 36.0 °F 93% 29.89 in 3.0 mi Calm Calm - 0.05 in Rain Light Rain
10:03 AM 37.4 °F - 35.6 °F 93% 29.85 in 2.5 mi Calm Calm - 0.00 in   Overcast
10:31 AM 37.4 °F - 35.6 °F 93% 29.85 in 2.0 mi Calm Calm - 0.00 in   Overcast
10:38 AM 37.4 °F 34.9 °F 35.6 °F 93% 29.85 in 1.2 mi SSW 3.5 mph - 0.00 in Rain Light Rain
10:53 AM 37.9 °F 34.4 °F 36.0 °F 93% 29.88 in 1.5 mi SSW 4.6 mph - 0.00 in Rain Light Rain
11:30 AM 37.4 °F 34.9 °F 37.4 °F 100% 29.84 in 1.0 mi SSW 3.5 mph - 0.00 in   Overcast
11:40 AM 37.4 °F - 37.4 °F 100% 29.84 in 1.2 mi Calm Calm - 0.00 in   Overcast
11:53 AM 37.9 °F 35.5 °F 37.0 °F 97% 29.88 in 1.2 mi SW 3.5 mph - 0.01 in   Overcast
12:08 PM 39.2 °F 35.0 °F 37.4 °F 93% 29.84 in 1.0 mi SW 5.8 mph - N/A   Overcast
12:26 PM 39.2 °F 37.0 °F 37.4 °F 93% 29.84 in 0.8 mi SW 3.5 mph - N/A   Overcast
12:53 PM 39.0 °F 36.8 °F 37.0 °F 93% 29.87 in 0.8 mi Variable 3.5 mph - N/A   Overcast
1:53 PM 39.0 °F 36.8 °F 37.9 °F 96% 29.86 in 0.8 mi West 3.5 mph - N/A   Overcast
2:14 PM 39.2 °F 37.0 °F 39.2 °F 100% 29.83 in 1.0 mi Variable 3.5 mph - N/A   Overcast
2:24 PM 39.2 °F 35.9 °F 37.4 °F 93% 29.83 in 1.5 mi West 4.6 mph - N/A   Overcast
2:50 PM 39.2 °F - 39.2 °F 100% 29.82 in 2.0 mi Calm Calm - N/A   Overcast
2:53 PM 39.9 °F - 39.0 °F 97% 29.85 in 2.5 mi Calm Calm - N/A   Overcast
2:59 PM 41.0 °F - 39.2 °F 93% 29.82 in 3.0 mi Calm Calm - N/A   Overcast
3:53 PM 43.0 °F - 39.0 °F 86% 29.85 in 6.0 mi Calm Calm - N/A   Overcast
4:04 PM 42.8 °F - 39.2 °F 87% 29.81 in 6.0 mi Calm Calm - N/A   Overcast
4:53 PM 45.0 °F 43.5 °F 37.9 °F 76% 29.84 in 9.0 mi Variable 3.5 mph - N/A   Mostly Cloudy
5:14 PM 46.4 °F 45.2 °F 37.4 °F 71% 29.80 in 10.0 mi Variable 3.5 mph - N/A   Scattered Clouds
5:53 PM 48.0 °F - 37.0 °F 66% 29.83 in 10.0 mi Variable 4.6 mph - N/A   Clear
6:53 PM 44.1 °F - 37.0 °F 76% 29.82 in 10.0 mi Calm Calm - N/A   Clear
7:53 PM 37.9 °F - 34.0 °F 86% 29.81 in 8.0 mi Calm Calm - N/A   Clear
8:14 PM 35.6 °F - 33.8 °F 93% 29.78 in 1.8 mi Calm Calm - N/A   Clear
8:38 PM 33.8 °F - 30.2 °F 87% 29.78 in 1.0 mi Calm Calm - N/A   Clear
8:46 PM 33.8 °F - 30.2 °F 87% 29.78 in 0.5 mi Calm Calm - N/A Fog Fog
8:53 PM 33.1 °F - 30.9 °F 92% 29.82 in 1.2 mi Calm Calm - N/A   Clear
9:47 PM 30.2 °F - 28.4 °F 93% 29.78 in 0.8 mi Calm Calm - N/A   Clear
9:53 PM 30.0 °F - 28.9 °F 96% 29.82 in 0.8 mi Calm Calm - N/A   Clear
9:59 PM 30.2 °F - 28.4 °F 93% 29.78 in 1.2 mi Calm Calm - N/A   Clear
10:03 PM 30.2 °F - 28.4 °F 93% 29.78 in 0.8 mi Calm Calm - N/A   Clear
10:18 PM 30.2 °F - 28.4 °F 93% 29.78 in 1.2 mi Calm Calm - N/A   Clear
10:26 PM 30.2 °F - 28.4 °F 93% 29.78 in 2.5 mi Calm Calm - N/A   Clear
10:40 PM 30.2 °F - 28.4 °F 93% 29.78 in 1.0 mi Calm Calm - N/A   Clear
10:49 PM 30.2 °F - 28.4 °F 93% 29.78 in 0.5 mi Calm Calm - N/A Fog Light Freezing Fog
10:53 PM 30.0 °F - 28.9 °F 96% 29.82 in 0.5 mi Calm Calm - N/A Fog Light Freezing Fog
11:11 PM 30.2 °F 26.7 °F 28.4 °F 93% 29.78 in 1.0 mi SSW 3.5 mph - N/A   Partly Cloudy
11:20 PM 30.2 °F - 28.4 °F 93% 29.77 in 0.8 mi Calm Calm - N/A   Partly Cloudy
11:31 PM 30.2 °F - 28.4 °F 93% 29.77 in 1.0 mi Calm Calm - N/A   Clear
11:41 PM 30.2 °F - 28.4 °F 93% 29.77 in 1.2 mi Calm Calm - N/A   Clear
11:47 PM 30.2 °F - 28.4 °F 93% 29.77 in 0.8 mi Calm Calm - N/A   Clear
11:53 PM 30.0 °F - 28.0 °F 92% 29.81 in 0.5 mi Calm Calm - N/A Fog Light Freezing Fog